TimePDT,TemperatureF,Dew PointF,Humidity,Sea Level PressureIn,VisibilityMPH,Wind Direction,Wind SpeedMPH,Gust SpeedMPH,PrecipitationIn,Events,Conditions,WindDirDegrees,DateUTC
12:15 AM,64.4,48.2,56,30.08,10.0,NNW,4.6,-,N/A,,Clear,330,2012-09-17 07:15:00
12:35 AM,64.4,48.2,56,30.08,10.0,NNW,6.9,-,N/A,,Clear,340,2012-09-17 07:35:00
12:55 AM,62.6,48.2,59,30.09,10.0,Calm,Calm,-,N/A,,Clear,0,2012-09-17 07:55:00
1:15 AM,62.6,48.2,59,30.08,10.0,North,3.5,-,N/A,,Clear,360,2012-09-17 08:15:00
1:35 AM,59.0,48.2,67,30.09,10.0,Calm,Calm,-,N/A,,Clear,0,2012-09-17 08:35:00
1:55 AM,55.4,48.2,77,30.09,10.0,Calm,Calm,-,N/A,,Partly Cloudy,0,2012-09-17 08:55:00
2:15 AM,55.4,48.2,77,30.09,10.0,Calm,Calm,-,N/A,,Partly Cloudy,0,2012-09-17 09:15:00
2:55 AM,53.6,48.2,82,30.08,10.0,Calm,Calm,-,N/A,,Clear,0,2012-09-17 09:55:00
3:15 AM,53.6,46.4,77,30.08,10.0,Calm,Calm,-,N/A,,Clear,0,2012-09-17 10:15:00
3:35 AM,53.6,48.2,82,30.08,10.0,Calm,Calm,-,N/A,,Clear,0,2012-09-17 10:35:00
3:55 AM,51.8,46.4,82,30.08,10.0,Calm,Calm,-,N/A,,Clear,0,2012-09-17 10:55:00
4:15 AM,51.8,46.4,82,30.08,10.0,Calm,Calm,-,N/A,,Scattered Clouds,0,2012-09-17 11:15:00
4:35 AM,51.8,44.6,76,30.08,10.0,Calm,Calm,-,N/A,,Mostly Cloudy,0,2012-09-17 11:35:00
5:15 AM,51.8,46.4,82,30.07,10.0,Calm,Calm,-,N/A,,Clear,0,2012-09-17 12:15:00
5:35 AM,50.0,44.6,82,30.07,10.0,Calm,Calm,-,N/A,,Clear,0,2012-09-17 12:35:00
5:55 AM,48.2,44.6,87,30.07,10.0,Calm,Calm,-,N/A,,Clear,0,2012-09-17 12:55:00
6:15 AM,48.2,44.6,87,30.08,10.0,Calm,Calm,-,N/A,,Clear,0,2012-09-17 13:15:00
6:35 AM,48.2,42.8,82,30.08,7.0,Calm,Calm,-,N/A,,Clear,0,2012-09-17 13:35:00
6:55 AM,48.2,42.8,82,30.08,10.0,Calm,Calm,-,N/A,,Clear,0,2012-09-17 13:55:00
7:15 AM,48.2,42.8,82,30.08,9.0,Calm,Calm,-,N/A,,Clear,0,2012-09-17 14:15:00
7:35 AM,48.2,44.6,87,30.09,6.0,Calm,Calm,-,N/A,,Clear,0,2012-09-17 14:35:00
7:55 AM,51.8,44.6,76,30.08,10.0,Calm,Calm,-,N/A,,Clear,0,2012-09-17 14:55:00
8:35 AM,55.4,48.2,77,30.09,10.0,Calm,Calm,-,N/A,,Clear,0,2012-09-17 15:35:00
8:55 AM,57.2,48.2,72,30.09,10.0,Calm,Calm,-,N/A,,Clear,0,2012-09-17 15:55:00
9:15 AM,57.2,48.2,72,30.09,10.0,Calm,Calm,-,N/A,,Clear,0,2012-09-17 16:15:00
9:35 AM,60.8,50.0,68,30.09,10.0,Calm,Calm,-,N/A,,Clear,0,2012-09-17 16:35:00
9:55 AM,62.6,50.0,63,30.08,10.0,SE,3.5,-,N/A,,Clear,140,2012-09-17 16:55:00
10:15 AM,64.4,50.0,59,30.08,10.0,Calm,Calm,-,N/A,,Clear,0,2012-09-17 17:15:00
10:35 AM,68.0,50.0,52,30.07,10.0,NNW,9.2,-,N/A,,Clear,330,2012-09-17 17:35:00
10:55 AM,69.8,50.0,49,30.07,10.0,North,9.2,-,N/A,,Clear,350,2012-09-17 17:55:00
11:15 AM,71.6,51.8,50,30.07,10.0,NNW,5.8,-,N/A,,Clear,340,2012-09-17 18:15:00
11:35 AM,71.6,51.8,50,30.06,10.0,NNW,8.1,-,N/A,,Clear,330,2012-09-17 18:35:00
11:55 AM,71.6,51.8,50,30.05,10.0,NNW,8.1,-,N/A,,Clear,330,2012-09-17 18:55:00
12:15 PM,73.4,51.8,47,30.05,10.0,NNW,9.2,-,N/A,,Clear,330,2012-09-17 19:15:00
12:35 PM,75.2,51.8,44,30.04,10.0,NNW,8.1,-,N/A,,Clear,330,2012-09-17 19:35:00
12:55 PM,75.2,51.8,44,30.03,10.0,NW,9.2,-,N/A,,Clear,320,2012-09-17 19:55:00
1:15 PM,78.8,51.8,39,30.02,10.0,NNW,8.1,-,N/A,,Clear,340,2012-09-17 20:15:00
1:35 PM,80.6,51.8,37,30.02,10.0,NW,6.9,-,N/A,,Clear,320,2012-09-17 20:35:00
1:55 PM,80.6,51.8,37,30.01,10.0,NNW,8.1,-,N/A,,Clear,340,2012-09-17 20:55:00
2:15 PM,82.4,53.6,37,30.00,10.0,NW,8.1,-,N/A,,Clear,320,2012-09-17 21:15:00
2:35 PM,82.4,53.6,37,29.99,10.0,NW,6.9,-,N/A,,Clear,320,2012-09-17 21:35:00
2:55 PM,84.2,53.6,35,29.97,10.0,NNW,5.8,-,N/A,,Clear,330,2012-09-17 21:55:00
3:15 PM,84.2,53.6,35,29.98,10.0,NW,5.8,-,N/A,,Clear,320,2012-09-17 22:15:00
3:55 PM,87.8,53.6,31,29.98,10.0,NNW,5.8,-,N/A,,Clear,330,2012-09-17 22:55:00
4:15 PM,87.8,51.8,29,29.97,10.0,North,6.9,-,N/A,,Clear,350,2012-09-17 23:15:00
4:35 PM,87.8,51.8,29,29.97,10.0,NNW,9.2,-,N/A,,Clear,330,2012-09-17 23:35:00
4:55 PM,87.8,51.8,29,29.97,10.0,North,4.6,-,N/A,,Clear,350,2012-09-17 23:55:00
5:15 PM,87.8,51.8,29,29.97,10.0,NNE,8.1,-,N/A,,Clear,20,2012-09-18 00:15:00
5:35 PM,87.8,51.8,29,29.96,10.0,North,6.9,-,N/A,,Clear,10,2012-09-18 00:35:00
5:55 PM,86.0,51.8,31,29.96,10.0,NNE,10.4,-,N/A,,Clear,20,2012-09-18 00:55:00
6:15 PM,84.2,51.8,33,29.96,10.0,NNE,8.1,-,N/A,,Clear,20,2012-09-18 01:15:00
6:35 PM,84.2,51.8,33,29.96,10.0,NNE,9.2,-,N/A,,Clear,20,2012-09-18 01:35:00
6:55 PM,82.4,51.8,35,29.96,10.0,North,8.1,-,N/A,,Clear,10,2012-09-18 01:55:00
7:15 PM,80.6,51.8,37,29.96,10.0,North,6.9,-,N/A,,Clear,360,2012-09-18 02:15:00
7:35 PM,75.2,51.8,44,29.96,3.0,Calm,Calm,-,N/A,,Clear,0,2012-09-18 02:35:00
7:55 PM,73.4,53.6,50,29.97,2.5,Calm,Calm,-,N/A,,Clear,0,2012-09-18 02:55:00
8:15 PM,69.8,53.6,56,29.97,10.0,Calm,Calm,-,N/A,,Clear,0,2012-09-18 03:15:00
8:35 PM,68.0,51.8,56,29.97,10.0,Calm,Calm,-,N/A,,Clear,0,2012-09-18 03:35:00
8:55 PM,66.2,51.8,60,29.98,10.0,Calm,Calm,-,N/A,,Clear,0,2012-09-18 03:55:00
9:15 PM,64.4,51.8,64,29.98,10.0,Calm,Calm,-,N/A,,Clear,0,2012-09-18 04:15:00
9:35 PM,62.6,51.8,68,29.98,10.0,Calm,Calm,-,N/A,,Clear,0,2012-09-18 04:35:00
9:55 PM,62.6,53.6,72,29.99,10.0,Calm,Calm,-,N/A,,Clear,0,2012-09-18 04:55:00
10:15 PM,60.8,50.0,68,29.99,10.0,Calm,Calm,-,N/A,,Clear,0,2012-09-18 05:15:00
10:35 PM,60.8,51.8,72,30.00,10.0,Calm,Calm,-,N/A,,Clear,0,2012-09-18 05:35:00
10:55 PM,60.8,51.8,72,30.00,10.0,Calm,Calm,-,N/A,,Clear,0,2012-09-18 05:55:00
11:15 PM,59.0,51.8,77,30.00,10.0,Calm,Calm,-,N/A,,Clear,0,2012-09-18 06:15:00
11:35 PM,57.2,50.0,77,30.00,9.0,Calm,Calm,-,N/A,,Clear,0,2012-09-18 06:35:00
11:55 PM,57.2,51.8,82,30.00,10.0,Calm,Calm,-,N/A,,Clear,0,2012-09-18 06:55:00